Time,TemperatureF,DewpointF,PressureIn,WindDirection,WindDirectionDegrees,WindSpeedMPH,WindSpeedGustMPH,Humidity,HourlyPrecipIn,Conditions,Clouds,dailyrainin,SoftwareType,DateUTC
2013-01-26 00:00:00,18.1,16.0,30.02,NNW,337,7.2,7.2,89,0.00,,,0.00,Rainwise IP-100,2013-01-26 05:00:00,
2013-01-26 00:05:00,18.1,16.0,30.01,North,360,6.3,7.9,89,0.00,,,0.00,Rainwise IP-100,2013-01-26 05:05:00,
2013-01-26 00:10:00,18.0,16.0,30.01,NNE,22,1.4,8.2,89,0.00,,,0.00,Rainwise IP-100,2013-01-26 05:10:00,
2013-01-26 00:15:00,17.9,16.0,30.01,North,360,2.1,7.9,89,0.00,,,0.00,Rainwise IP-100,2013-01-26 05:15:00,
2013-01-26 00:20:00,17.8,16.0,30.01,North,360,2.6,5.6,89,0.00,,,0.00,Rainwise IP-100,2013-01-26 05:20:00,
2013-01-26 00:25:00,17.8,16.0,30.01,NNE,22,2.1,7.2,89,0.00,,,0.00,Rainwise IP-100,2013-01-26 05:25:00,
2013-01-26 00:30:00,17.8,16.0,30.01,North,360,4.9,6.8,89,0.00,,,0.00,Rainwise IP-100,2013-01-26 05:30:00,
2013-01-26 00:35:00,17.7,16.0,30.00,North,360,0.0,7.7,89,0.00,,,0.00,Rainwise IP-100,2013-01-26 05:35:00,
2013-01-26 00:40:00,17.7,16.0,30.01,North,360,2.1,7.5,89,0.00,,,0.00,Rainwise IP-100,2013-01-26 05:40:00,
2013-01-26 00:45:00,17.7,16.0,30.00,NNW,337,3.5,6.8,89,0.00,,,0.00,Rainwise IP-100,2013-01-26 05:45:00,
2013-01-26 00:50:00,17.7,16.0,30.00,NNE,22,2.1,5.1,89,0.00,,,0.00,Rainwise IP-100,2013-01-26 05:50:00,
2013-01-26 00:55:00,17.7,16.0,30.00,North,360,4.9,6.1,90,0.00,,,0.00,Rainwise IP-100,2013-01-26 05:55:00,
2013-01-26 01:00:00,17.6,16.0,30.01,NNW,337,4.4,7.2,90,0.00,,,0.00,Rainwise IP-100,2013-01-26 06:00:00,
2013-01-26 01:05:00,17.5,16.0,30.01,North,360,3.0,7.0,90,0.00,,,0.00,Rainwise IP-100,2013-01-26 06:05:00,
2013-01-26 01:10:00,17.5,16.0,30.01,WNW,292,3.3,5.8,90,0.00,,,0.00,Rainwise IP-100,2013-01-26 06:10:00,
2013-01-26 01:15:00,17.5,16.0,30.01,North,360,1.4,5.1,90,0.00,,,0.00,Rainwise IP-100,2013-01-26 06:15:00,
2013-01-26 01:20:00,17.5,16.0,30.00,North,360,4.9,6.5,90,0.00,,,0.00,Rainwise IP-100,2013-01-26 06:20:00,
2013-01-26 01:25:00,17.5,16.0,30.00,NNE,22,2.1,6.5,90,0.00,,,0.00,Rainwise IP-100,2013-01-26 06:25:00,
2013-01-26 01:30:00,17.4,16.0,30.00,North,360,0.0,5.6,90,0.00,,,0.00,Rainwise IP-100,2013-01-26 06:30:00,
2013-01-26 01:35:00,17.4,16.0,30.00,NNW,337,3.0,6.5,90,0.00,,,0.00,Rainwise IP-100,2013-01-26 06:35:00,
2013-01-26 01:40:00,17.4,16.0,30.00,North,360,2.6,4.2,90,0.00,,,0.00,Rainwise IP-100,2013-01-26 06:40:00,
2013-01-26 01:45:00,17.4,16.0,29.99,NNW,337,3.5,5.6,90,0.00,,,0.00,Rainwise IP-100,2013-01-26 06:45:00,
2013-01-26 01:50:00,17.3,16.0,30.00,North,360,3.7,5.6,90,0.00,,,0.00,Rainwise IP-100,2013-01-26 06:50:00,
2013-01-26 01:55:00,17.2,16.0,30.00,North,360,3.7,7.7,90,0.00,,,0.00,Rainwise IP-100,2013-01-26 06:55:00,
2013-01-26 02:00:00,17.2,16.0,29.99,North,360,2.8,7.2,90,0.00,,,0.00,Rainwise IP-100,2013-01-26 07:00:00,
2013-01-26 02:05:00,17.0,16.0,29.99,North,360,0.0,6.5,90,0.00,,,0.00,Rainwise IP-100,2013-01-26 07:05:00,
2013-01-26 02:10:00,16.9,16.0,29.99,NNW,337,3.5,4.9,90,0.00,,,0.00,Rainwise IP-100,2013-01-26 07:10:00,
2013-01-26 02:15:00,16.7,16.0,29.99,North,360,2.3,4.9,90,0.00,,,0.00,Rainwise IP-100,2013-01-26 07:15:00,
2013-01-26 02:20:00,16.5,16.0,29.98,North,360,3.3,6.5,90,0.00,,,0.00,Rainwise IP-100,2013-01-26 07:20:00,
2013-01-26 02:25:00,16.4,14.0,29.99,North,360,2.3,6.5,90,0.00,,,0.00,Rainwise IP-100,2013-01-26 07:25:00,
2013-01-26 02:30:00,16.4,14.0,29.99,NW,315,2.6,6.3,90,0.00,,,0.00,Rainwise IP-100,2013-01-26 07:30:00,
2013-01-26 02:35:00,16.3,14.0,29.99,NNW,337,1.9,4.0,90,0.00,,,0.00,Rainwise IP-100,2013-01-26 07:35:00,
2013-01-26 02:40:00,16.2,14.0,29.99,NNW,337,3.0,3.7,90,0.00,,,0.00,Rainwise IP-100,2013-01-26 07:40:00,
2013-01-26 02:45:00,16.2,14.0,29.99,NNW,337,3.7,4.2,90,0.00,,,0.00,Rainwise IP-100,2013-01-26 07:45:00,
2013-01-26 02:50:00,16.3,14.0,29.99,North,360,2.1,6.1,90,0.00,,,0.00,Rainwise IP-100,2013-01-26 07:50:00,
2013-01-26 02:55:00,16.4,14.0,29.99,NNW,337,3.7,5.6,90,0.00,,,0.00,Rainwise IP-100,2013-01-26 07:55:00,
2013-01-26 03:00:00,16.4,14.0,29.98,NNW,337,3.7,5.8,90,0.00,,,0.00,Rainwise IP-100,2013-01-26 08:00:00,
2013-01-26 03:05:00,16.5,16.0,29.99,NNW,337,1.6,6.1,89,0.00,,,0.00,Rainwise IP-100,2013-01-26 08:05:00,
2013-01-26 03:10:00,16.5,16.0,29.99,NNW,337,2.6,4.7,89,0.00,,,0.00,Rainwise IP-100,2013-01-26 08:10:00,
2013-01-26 03:15:00,16.5,16.0,29.98,NNW,337,1.9,4.7,89,0.00,,,0.00,Rainwise IP-100,2013-01-26 08:15:00,
2013-01-26 03:20:00,16.4,14.0,29.98,North,360,4.0,5.6,89,0.00,,,0.00,Rainwise IP-100,2013-01-26 08:20:00,
2013-01-26 03:25:00,16.3,14.0,29.98,NNW,337,1.6,6.5,89,0.00,,,0.00,Rainwise IP-100,2013-01-26 08:25:00,
2013-01-26 03:30:00,16.1,14.0,29.98,North,360,0.0,4.4,89,0.00,,,0.00,Rainwise IP-100,2013-01-26 08:30:00,
2013-01-26 03:35:00,16.0,14.0,29.98,NNW,337,1.2,4.7,89,0.00,,,0.00,Rainwise IP-100,2013-01-26 08:35:00,
2013-01-26 03:40:00,15.9,14.0,29.98,North,360,0.0,6.5,89,0.00,,,0.00,Rainwise IP-100,2013-01-26 08:40:00,
2013-01-26 03:45:00,15.7,14.0,29.98,NNW,337,1.4,5.1,89,0.00,,,0.00,Rainwise IP-100,2013-01-26 08:45:00,
2013-01-26 03:50:00,15.5,14.0,29.97,NW,315,0.0,4.0,89,0.00,,,0.00,Rainwise IP-100,2013-01-26 08:50:00,
2013-01-26 03:53:00,15.3,14.0,29.98,NW,315,0.0,4.0,89,0.00,,,0.00,Rainwise IP-100,2013-01-26 08:53:00,
2013-01-26 03:54:00,15.2,14.0,29.97,NW,315,0.0,4.0,89,0.00,,,0.00,Rainwise IP-100,2013-01-26 08:54:00,
2013-01-26 03:59:00,14.9,14.0,29.97,NNW,337,1.4,3.5,89,0.00,,,0.00,Rainwise IP-100,2013-01-26 08:59:00,
2013-01-26 04:05:00,14.4,11.0,29.98,NNW,337,0.0,4.4,89,0.00,,,0.00,Rainwise IP-100,2013-01-26 09:05:00,
2013-01-26 04:10:00,14.1,11.0,29.98,NW,315,1.9,4.4,89,0.00,,,0.00,Rainwise IP-100,2013-01-26 09:10:00,
2013-01-26 04:15:00,14.1,11.0,29.98,North,360,4.4,4.4,90,0.00,,,0.00,Rainwise IP-100,2013-01-26 09:15:00,
2013-01-26 04:20:00,14.0,11.0,29.97,North,360,2.8,5.4,90,0.00,,,0.00,Rainwise IP-100,2013-01-26 09:20:00,
2013-01-26 04:25:00,13.9,11.0,29.98,NNW,337,2.1,3.7,90,0.00,,,0.00,Rainwise IP-100,2013-01-26 09:25:00,
2013-01-26 04:30:00,13.8,11.0,29.98,NNW,337,1.2,4.9,90,0.00,,,0.00,Rainwise IP-100,2013-01-26 09:30:00,
2013-01-26 04:35:00,13.6,11.0,29.98,NNW,337,0.0,2.1,90,0.00,,,0.00,Rainwise IP-100,2013-01-26 09:35:00,
2013-01-26 04:40:00,13.4,11.0,29.98,NNW,337,1.9,2.3,90,0.00,,,0.00,Rainwise IP-100,2013-01-26 09:40:00,
2013-01-26 04:45:00,13.1,11.0,29.98,NNW,337,0.0,2.3,90,0.00,,,0.00,Rainwise IP-100,2013-01-26 09:45:00,
2013-01-26 04:50:00,12.9,11.0,29.98,NNW,337,0.0,0.0,91,0.00,,,0.00,Rainwise IP-100,2013-01-26 09:50:00,
2013-01-26 04:55:00,12.7,11.0,29.98,NNW,337,0.0,1.4,91,0.00,,,0.00,Rainwise IP-100,2013-01-26 09:55:00,
2013-01-26 05:00:00,12.6,11.0,29.98,NNW,337,1.4,3.0,91,0.00,,,0.00,Rainwise IP-100,2013-01-26 10:00:00,
2013-01-26 05:05:00,12.6,11.0,29.98,NNW,337,1.6,3.0,91,0.00,,,0.00,Rainwise IP-100,2013-01-26 10:05:00,
2013-01-26 05:10:00,12.5,11.0,29.98,NNW,337,2.1,2.8,92,0.00,,,0.00,Rainwise IP-100,2013-01-26 10:10:00,
2013-01-26 05:15:00,12.3,11.0,29.98,NNW,337,1.4,3.7,92,0.00,,,0.00,Rainwise IP-100,2013-01-26 10:15:00,
2013-01-26 05:20:00,12.2,11.0,29.99,NNW,337,3.0,3.5,92,0.00,,,0.00,Rainwise IP-100,2013-01-26 10:20:00,
2013-01-26 05:25:00,12.1,11.0,29.99,North,360,3.5,4.0,92,0.00,,,0.00,Rainwise IP-100,2013-01-26 10:25:00,
2013-01-26 05:30:00,12.1,11.0,29.99,NNW,337,3.0,4.2,92,0.00,,,0.00,Rainwise IP-100,2013-01-26 10:30:00,
2013-01-26 05:35:00,12.2,11.0,29.99,North,360,1.4,5.1,92,0.00,,,0.00,Rainwise IP-100,2013-01-26 10:35:00,
2013-01-26 05:40:00,12.4,11.0,29.99,North,360,1.4,4.0,92,0.00,,,0.00,Rainwise IP-100,2013-01-26 10:40:00,
2013-01-26 05:45:00,12.4,11.0,29.99,NNW,337,3.5,5.1,92,0.00,,,0.00,Rainwise IP-100,2013-01-26 10:45:00,
2013-01-26 05:50:00,12.4,11.0,29.99,North,360,2.1,7.0,92,0.00,,,0.00,Rainwise IP-100,2013-01-26 10:50:00,
2013-01-26 05:55:00,12.5,11.0,29.99,NNW,337,3.7,6.1,92,0.00,,,0.00,Rainwise IP-100,2013-01-26 10:55:00,
2013-01-26 06:00:00,12.7,11.0,29.99,North,360,3.3,5.8,92,0.00,,,0.00,Rainwise IP-100,2013-01-26 11:00:00,
2013-01-26 06:05:00,12.7,11.0,29.99,North,360,5.1,5.1,92,0.00,,,0.00,Rainwise IP-100,2013-01-26 11:05:00,
2013-01-26 06:10:00,12.6,11.0,29.99,NNW,337,3.0,7.5,92,0.00,,,0.00,Rainwise IP-100,2013-01-26 11:10:00,
2013-01-26 06:15:00,12.6,11.0,29.99,North,360,2.1,6.3,92,0.00,,,0.00,Rainwise IP-100,2013-01-26 11:15:00,
2013-01-26 06:20:00,12.7,11.0,29.99,WNW,292,3.5,7.0,92,0.00,,,0.00,Rainwise IP-100,2013-01-26 11:20:00,
2013-01-26 06:25:00,12.6,11.0,29.99,NNW,337,2.6,5.4,91,0.00,,,0.00,Rainwise IP-100,2013-01-26 11:25:00,
2013-01-26 06:30:00,12.5,11.0,30.00,NW,315,3.7,6.1,91,0.00,,,0.00,Rainwise IP-100,2013-01-26 11:30:00,
2013-01-26 06:35:00,12.4,11.0,30.00,NNW,337,3.7,7.0,91,0.00,,,0.00,Rainwise IP-100,2013-01-26 11:35:00,
2013-01-26 06:40:00,12.4,11.0,30.00,North,360,4.4,7.2,91,0.00,,,0.00,Rainwise IP-100,2013-01-26 11:40:00,
2013-01-26 06:45:00,12.3,11.0,30.00,NNW,337,4.0,8.2,91,0.00,,,0.00,Rainwise IP-100,2013-01-26 11:45:00,
2013-01-26 06:50:00,12.3,11.0,30.00,North,360,5.1,7.2,91,0.00,,,0.00,Rainwise IP-100,2013-01-26 11:50:00,
2013-01-26 06:55:00,12.2,11.0,30.00,NW,315,6.5,6.5,91,0.00,,,0.00,Rainwise IP-100,2013-01-26 11:55:00,
2013-01-26 07:00:00,12.1,11.0,30.00,NW,315,1.4,6.5,91,0.00,,,0.00,Rainwise IP-100,2013-01-26 12:00:00,
2013-01-26 07:05:00,12.0,11.0,30.00,NNW,337,2.6,6.5,91,0.00,,,0.00,Rainwise IP-100,2013-01-26 12:05:00,
2013-01-26 07:10:00,12.0,11.0,30.00,WNW,292,4.0,7.5,91,0.00,,,0.00,Rainwise IP-100,2013-01-26 12:10:00,
2013-01-26 07:15:00,12.1,11.0,30.00,NNW,337,4.0,7.0,90,0.00,,,0.00,Rainwise IP-100,2013-01-26 12:15:00,
2013-01-26 07:20:00,12.1,11.0,30.01,North,360,6.1,6.8,90,0.00,,,0.00,Rainwise IP-100,2013-01-26 12:20:00,
2013-01-26 07:25:00,12.0,11.0,30.01,NNE,22,6.8,7.9,90,0.00,,,0.00,Rainwise IP-100,2013-01-26 12:25:00,
2013-01-26 07:30:00,12.2,11.0,30.01,NNW,337,3.5,9.8,90,0.00,,,0.00,Rainwise IP-100,2013-01-26 12:30:00,
2013-01-26 07:35:00,12.2,11.0,30.01,NNW,337,2.8,4.9,89,0.00,,,0.00,Rainwise IP-100,2013-01-26 12:35:00,
2013-01-26 07:40:00,12.3,11.0,30.01,North,360,3.7,8.6,89,0.00,,,0.00,Rainwise IP-100,2013-01-26 12:40:00,
2013-01-26 07:45:00,12.5,11.0,30.01,NNW,337,4.9,8.9,89,0.00,,,0.00,Rainwise IP-100,2013-01-26 12:45:00,
2013-01-26 07:50:00,12.7,11.0,30.02,NNW,337,9.6,9.6,89,0.00,,,0.00,Rainwise IP-100,2013-01-26 12:50:00,
2013-01-26 07:55:00,12.8,11.0,30.01,North,360,8.4,11.9,89,0.00,,,0.00,Rainwise IP-100,2013-01-26 12:55:00,
2013-01-26 08:00:00,13.0,11.0,30.02,NNW,337,5.4,10.7,88,0.00,,,0.00,Rainwise IP-100,2013-01-26 13:00:00,
2013-01-26 08:05:00,13.2,11.0,30.02,WNW,292,4.2,14.2,88,0.00,,,0.00,Rainwise IP-100,2013-01-26 13:05:00,
2013-01-26 08:10:00,13.6,11.0,30.02,NW,315,6.3,11.2,87,0.00,,,0.00,Rainwise IP-100,2013-01-26 13:10:00,
2013-01-26 08:15:00,14.0,11.0,30.02,North,360,7.2,12.4,86,0.00,,,0.00,Rainwise IP-100,2013-01-26 13:15:00,
2013-01-26 08:20:00,14.4,11.0,30.02,North,360,7.2,16.3,85,0.00,,,0.00,Rainwise IP-100,2013-01-26 13:20:00,
2013-01-26 08:25:00,14.5,14.0,30.02,NNW,337,8.2,17.0,84,0.00,,,0.00,Rainwise IP-100,2013-01-26 13:25:00,
2013-01-26 08:30:00,14.8,11.0,30.02,North,360,4.0,9.8,83,0.00,,,0.00,Rainwise IP-100,2013-01-26 13:30:00,
2013-01-26 08:35:00,15.1,11.0,30.02,North,360,9.8,10.7,83,0.00,,,0.00,Rainwise IP-100,2013-01-26 13:35:00,
2013-01-26 08:40:00,15.1,11.0,30.02,NNE,22,5.8,12.8,82,0.00,,,0.00,Rainwise IP-100,2013-01-26 13:40:00,
2013-01-26 08:45:00,15.3,11.0,30.01,North,360,7.9,17.0,81,0.00,,,0.00,Rainwise IP-100,2013-01-26 13:45:00,
2013-01-26 08:50:00,15.4,11.0,30.01,North,360,9.3,16.6,79,0.00,,,0.00,Rainwise IP-100,2013-01-26 13:50:00,
2013-01-26 08:55:00,15.5,11.0,30.02,NW,315,5.8,15.2,79,0.00,,,0.00,Rainwise IP-100,2013-01-26 13:55:00,
2013-01-26 09:00:00,15.6,11.0,30.02,NNE,22,9.6,17.5,78,0.00,,,0.00,Rainwise IP-100,2013-01-26 14:00:00,
2013-01-26 09:05:00,15.7,11.0,30.02,North,360,14.0,17.3,77,0.00,,,0.00,Rainwise IP-100,2013-01-26 14:05:00,
2013-01-26 09:10:00,15.8,11.0,30.02,WNW,292,9.8,16.6,76,0.00,,,0.00,Rainwise IP-100,2013-01-26 14:10:00,
2013-01-26 09:15:00,16.0,11.0,30.02,NNW,337,3.7,11.0,76,0.00,,,0.00,Rainwise IP-100,2013-01-26 14:15:00,
2013-01-26 09:20:00,16.6,14.0,30.02,WNW,292,5.8,11.2,75,0.00,,,0.00,Rainwise IP-100,2013-01-26 14:20:00,
2013-01-26 09:25:00,16.6,14.0,30.02,NNW,337,7.0,13.3,75,0.00,,,0.00,Rainwise IP-100,2013-01-26 14:25:00,
2013-01-26 09:30:00,16.6,11.0,30.02,NNW,337,4.2,13.8,74,0.00,,,0.00,Rainwise IP-100,2013-01-26 14:30:00,
2013-01-26 09:35:00,16.9,11.0,30.02,NNE,22,14.9,14.9,73,0.00,,,0.00,Rainwise IP-100,2013-01-26 14:35:00,
2013-01-26 09:40:00,17.0,11.0,30.02,North,360,6.8,16.3,73,0.00,,,0.00,Rainwise IP-100,2013-01-26 14:40:00,
2013-01-26 09:45:00,17.2,11.0,30.03,NW,315,4.9,11.7,72,0.00,,,0.00,Rainwise IP-100,2013-01-26 14:45:00,
2013-01-26 09:50:00,17.3,11.0,30.03,NW,315,7.5,15.4,71,0.00,,,0.00,Rainwise IP-100,2013-01-26 14:50:00,
2013-01-26 09:55:00,17.3,11.0,30.03,NNW,337,15.2,15.2,71,0.00,,,0.00,Rainwise IP-100,2013-01-26 14:55:00,
2013-01-26 10:00:00,17.4,11.0,30.03,NNW,337,4.4,16.1,71,0.00,,,0.00,Rainwise IP-100,2013-01-26 15:00:00,
2013-01-26 10:05:00,17.4,11.0,30.03,NNW,337,2.8,14.0,70,0.00,,,0.00,Rainwise IP-100,2013-01-26 15:05:00,
2013-01-26 10:10:00,17.8,11.0,30.03,NNW,337,14.0,14.0,70,0.00,,,0.00,Rainwise IP-100,2013-01-26 15:10:00,
2013-01-26 10:15:00,18.4,11.0,30.03,NW,315,5.6,14.0,69,0.00,,,0.00,Rainwise IP-100,2013-01-26 15:15:00,
2013-01-26 10:20:00,18.5,11.0,30.03,NNW,337,5.8,13.3,67,0.00,,,0.00,Rainwise IP-100,2013-01-26 15:20:00,
2013-01-26 10:25:00,18.6,11.0,30.03,NNW,337,10.7,10.7,67,0.00,,,0.00,Rainwise IP-100,2013-01-26 15:25:00,
2013-01-26 10:30:00,18.8,11.0,30.03,NW,315,4.0,12.1,66,0.00,,,0.00,Rainwise IP-100,2013-01-26 15:30:00,
2013-01-26 10:35:00,18.9,11.0,30.03,North,360,4.7,12.6,65,0.00,,,0.00,Rainwise IP-100,2013-01-26 15:35:00,
2013-01-26 10:40:00,19.6,11.0,30.03,NNE,22,6.8,14.0,64,0.00,,,0.00,Rainwise IP-100,2013-01-26 15:40:00,
2013-01-26 10:45:00,20.2,11.0,30.03,NNW,337,8.6,11.7,63,0.00,,,0.00,Rainwise IP-100,2013-01-26 15:45:00,
2013-01-26 10:50:00,20.2,11.0,30.02,North,360,5.4,11.9,61,0.00,,,0.00,Rainwise IP-100,2013-01-26 15:50:00,
2013-01-26 10:55:00,20.1,11.0,30.02,WNW,292,3.7,9.8,61,0.00,,,0.00,Rainwise IP-100,2013-01-26 15:55:00,
2013-01-26 11:01:00,20.3,11.0,30.02,NW,315,3.0,11.7,60,0.00,,,0.00,Rainwise IP-100,2013-01-26 16:01:00,
2013-01-26 11:06:00,20.3,11.0,30.02,NW,315,7.2,11.0,60,0.00,,,0.00,Rainwise IP-100,2013-01-26 16:06:00,
2013-01-26 11:11:00,20.2,8.0,30.02,North,360,4.0,11.9,59,0.00,,,0.00,Rainwise IP-100,2013-01-26 16:11:00,
2013-01-26 11:16:00,20.6,8.0,30.01,NE,45,3.5,12.1,59,0.00,,,0.00,Rainwise IP-100,2013-01-26 16:16:00,
2013-01-26 11:21:00,21.1,8.0,30.02,NW,315,7.2,15.6,58,0.00,,,0.00,Rainwise IP-100,2013-01-26 16:21:00,
2013-01-26 11:26:00,20.8,8.0,30.01,WNW,292,7.9,15.6,58,0.00,,,0.00,Rainwise IP-100,2013-01-26 16:26:00,
2013-01-26 11:31:00,20.5,8.0,30.01,North,360,5.4,11.9,57,0.00,,,0.00,Rainwise IP-100,2013-01-26 16:31:00,
2013-01-26 11:36:00,20.7,8.0,30.00,North,360,7.9,14.2,57,0.00,,,0.00,Rainwise IP-100,2013-01-26 16:36:00,
2013-01-26 11:41:00,21.3,8.0,30.01,NW,315,8.2,11.9,57,0.00,,,0.00,Rainwise IP-100,2013-01-26 16:41:00,
2013-01-26 11:46:00,21.4,8.0,30.02,WNW,292,2.8,12.6,56,0.00,,,0.00,Rainwise IP-100,2013-01-26 16:46:00,
2013-01-26 11:51:00,21.3,8.0,30.01,North,360,6.3,10.3,56,0.00,,,0.00,Rainwise IP-100,2013-01-26 16:51:00,
2013-01-26 11:56:00,21.8,11.0,30.00,NNW,337,7.2,11.7,55,0.00,,,0.00,Rainwise IP-100,2013-01-26 16:56:00,
2013-01-26 12:01:00,21.9,11.0,30.01,WNW,292,0.0,10.3,55,0.00,,,0.00,Rainwise IP-100,2013-01-26 17:01:00,
2013-01-26 12:06:00,21.9,11.0,30.01,WNW,292,7.7,13.3,55,0.00,,,0.00,Rainwise IP-100,2013-01-26 17:06:00,
2013-01-26 12:11:00,22.3,8.0,30.01,NNW,337,4.9,10.3,54,0.00,,,0.00,Rainwise IP-100,2013-01-26 17:11:00,
2013-01-26 12:16:00,22.9,8.0,30.01,NNW,337,4.2,10.3,54,0.00,,,0.00,Rainwise IP-100,2013-01-26 17:16:00,
2013-01-26 12:21:00,23.0,8.0,30.00,WSW,247,1.4,13.5,53,0.00,,,0.00,Rainwise IP-100,2013-01-26 17:21:00,
2013-01-26 12:26:00,22.5,8.0,30.00,North,360,3.7,14.2,53,0.00,,,0.00,Rainwise IP-100,2013-01-26 17:26:00,
2013-01-26 12:31:00,22.5,8.0,30.00,WNW,292,4.9,11.0,52,0.00,,,0.00,Rainwise IP-100,2013-01-26 17:31:00,
2013-01-26 12:36:00,22.9,8.0,30.00,North,360,5.1,13.1,52,0.00,,,0.00,Rainwise IP-100,2013-01-26 17:36:00,
2013-01-26 12:41:00,23.2,8.0,30.00,NNW,337,6.8,10.7,52,0.00,,,0.00,Rainwise IP-100,2013-01-26 17:41:00,
2013-01-26 12:46:00,23.4,8.0,30.00,NNW,337,3.5,14.2,51,0.00,,,0.00,Rainwise IP-100,2013-01-26 17:46:00,
2013-01-26 12:51:00,23.8,11.0,30.00,NNW,337,5.1,9.1,50,0.00,,,0.00,Rainwise IP-100,2013-01-26 17:51:00,
2013-01-26 12:56:00,23.9,11.0,30.00,WNW,292,7.2,12.1,50,0.00,,,0.00,Rainwise IP-100,2013-01-26 17:56:00,
2013-01-26 13:01:00,23.6,11.0,30.00,WNW,292,8.9,11.9,50,0.00,,,0.00,Rainwise IP-100,2013-01-26 18:01:00,
2013-01-26 13:06:00,23.5,11.0,30.00,NNW,337,11.4,11.9,50,0.00,,,0.00,Rainwise IP-100,2013-01-26 18:06:00,
2013-01-26 13:11:00,24.0,8.0,29.99,West,270,6.1,12.1,49,0.00,,,0.00,Rainwise IP-100,2013-01-26 18:11:00,
2013-01-26 13:16:00,24.1,8.0,30.00,NNW,337,3.7,9.8,49,0.00,,,0.00,Rainwise IP-100,2013-01-26 18:16:00,
2013-01-26 13:21:00,24.0,8.0,30.00,WSW,247,8.6,11.4,49,0.00,,,0.00,Rainwise IP-100,2013-01-26 18:21:00,
2013-01-26 13:26:00,24.1,8.0,30.00,NNW,337,5.1,11.9,49,0.00,,,0.00,Rainwise IP-100,2013-01-26 18:26:00,
2013-01-26 13:31:00,24.2,8.0,30.00,West,270,1.6,12.1,49,0.00,,,0.00,Rainwise IP-100,2013-01-26 18:31:00,
2013-01-26 13:36:00,24.2,8.0,30.00,WSW,247,4.2,13.8,49,0.00,,,0.00,Rainwise IP-100,2013-01-26 18:36:00,
2013-01-26 13:41:00,24.4,8.0,30.00,NW,315,4.2,15.2,49,0.00,,,0.00,Rainwise IP-100,2013-01-26 18:41:00,
2013-01-26 13:46:00,24.4,8.0,30.00,NW,315,0.0,8.9,49,0.00,,,0.00,Rainwise IP-100,2013-01-26 18:46:00,
2013-01-26 13:51:00,24.3,8.0,30.00,NW,315,7.0,15.2,48,0.00,,,0.00,Rainwise IP-100,2013-01-26 18:51:00,
2013-01-26 13:56:00,24.1,8.0,30.00,NNW,337,10.3,14.7,47,0.00,,,0.00,Rainwise IP-100,2013-01-26 18:56:00,
2013-01-26 14:01:00,24.1,8.0,30.00,NNW,337,3.5,14.2,47,0.00,,,0.00,Rainwise IP-100,2013-01-26 19:01:00,
2013-01-26 14:06:00,24.3,8.0,30.00,NNW,337,7.0,14.7,47,0.00,,,0.00,Rainwise IP-100,2013-01-26 19:06:00,
2013-01-26 14:11:00,24.3,8.0,30.00,NNW,337,7.9,14.2,47,0.00,,,0.00,Rainwise IP-100,2013-01-26 19:11:00,
2013-01-26 14:16:00,24.3,8.0,30.00,North,360,8.4,13.5,47,0.00,,,0.00,Rainwise IP-100,2013-01-26 19:16:00,
2013-01-26 14:21:00,24.4,8.0,30.00,NW,315,1.6,11.2,47,0.00,,,0.00,Rainwise IP-100,2013-01-26 19:21:00,
2013-01-26 14:26:00,24.4,8.0,30.00,NNW,337,8.4,12.8,47,0.00,,,0.00,Rainwise IP-100,2013-01-26 19:26:00,
2013-01-26 14:31:00,24.5,11.0,30.00,WNW,292,5.8,11.9,47,0.00,,,0.00,Rainwise IP-100,2013-01-26 19:31:00,
2013-01-26 14:36:00,24.6,11.0,30.01,NNW,337,6.8,13.3,47,0.00,,,0.00,Rainwise IP-100,2013-01-26 19:36:00,
2013-01-26 14:41:00,24.6,11.0,30.01,NNW,337,4.4,11.9,47,0.00,,,0.00,Rainwise IP-100,2013-01-26 19:41:00,
2013-01-26 14:46:00,24.7,11.0,30.01,WSW,247,6.3,9.3,47,0.00,,,0.00,Rainwise IP-100,2013-01-26 19:46:00,
2013-01-26 14:51:00,24.8,11.0,30.01,NNW,337,5.4,13.5,47,0.00,,,0.00,Rainwise IP-100,2013-01-26 19:51:00,
2013-01-26 14:56:00,24.9,8.0,30.01,SW,225,2.6,10.0,46,0.00,,,0.00,Rainwise IP-100,2013-01-26 19:56:00,
2013-01-26 15:01:00,24.8,8.0,30.02,NNW,337,4.7,12.1,46,0.00,,,0.00,Rainwise IP-100,2013-01-26 20:01:00,
2013-01-26 15:06:00,24.8,11.0,30.02,WSW,247,8.2,9.8,47,0.00,,,0.00,Rainwise IP-100,2013-01-26 20:06:00,
2013-01-26 15:11:00,24.9,8.0,30.02,NNW,337,6.5,11.4,46,0.00,,,0.00,Rainwise IP-100,2013-01-26 20:11:00,
2013-01-26 15:16:00,25.1,8.0,30.02,NW,315,6.3,8.6,46,0.00,,,0.00,Rainwise IP-100,2013-01-26 20:16:00,
2013-01-26 15:21:00,25.2,8.0,30.02,West,270,0.0,8.9,46,0.00,,,0.00,Rainwise IP-100,2013-01-26 20:21:00,
2013-01-26 15:26:00,25.3,8.0,30.02,NW,315,2.6,12.1,46,0.00,,,0.00,Rainwise IP-100,2013-01-26 20:26:00,
2013-01-26 15:31:00,25.1,11.0,30.02,NW,315,8.2,14.7,47,0.00,,,0.00,Rainwise IP-100,2013-01-26 20:31:00,
2013-01-26 15:36:00,24.8,11.0,30.03,North,360,3.5,13.5,47,0.00,,,0.00,Rainwise IP-100,2013-01-26 20:36:00,
2013-01-26 15:41:00,24.9,11.0,30.03,NW,315,2.1,10.5,47,0.00,,,0.00,Rainwise IP-100,2013-01-26 20:41:00,
2013-01-26 15:46:00,25.0,8.0,30.03,NW,315,4.2,8.9,46,0.00,,,0.00,Rainwise IP-100,2013-01-26 20:46:00,
2013-01-26 15:51:00,24.8,8.0,30.02,West,270,0.0,12.1,46,0.00,,,0.00,Rainwise IP-100,2013-01-26 20:51:00,
2013-01-26 15:56:00,24.6,8.0,30.03,SW,225,6.5,13.3,46,0.00,,,0.00,Rainwise IP-100,2013-01-26 20:56:00,
2013-01-26 16:01:00,24.5,8.0,30.04,NNW,337,3.0,12.8,46,0.00,,,0.00,Rainwise IP-100,2013-01-26 21:01:00,
2013-01-26 16:06:00,24.5,8.0,30.04,WNW,292,1.4,10.3,45,0.00,,,0.00,Rainwise IP-100,2013-01-26 21:06:00,
2013-01-26 16:11:00,24.4,8.0,30.04,NW,315,2.3,10.3,45,0.00,,,0.00,Rainwise IP-100,2013-01-26 21:11:00,
2013-01-26 16:16:00,24.1,8.0,30.05,WNW,292,4.4,11.0,45,0.00,,,0.00,Rainwise IP-100,2013-01-26 21:16:00,
2013-01-26 16:21:00,24.1,8.0,30.05,NW,315,9.1,10.3,44,0.00,,,0.00,Rainwise IP-100,2013-01-26 21:21:00,
2013-01-26 16:26:00,23.9,8.0,30.06,North,360,2.3,10.5,44,0.00,,,0.00,Rainwise IP-100,2013-01-26 21:26:00,
2013-01-26 16:31:00,23.6,8.0,30.06,NNW,337,6.1,12.4,43,0.00,,,0.00,Rainwise IP-100,2013-01-26 21:31:00,
2013-01-26 16:36:00,23.2,4.0,30.06,West,270,3.5,9.6,41,0.00,,,0.00,Rainwise IP-100,2013-01-26 21:36:00,
2013-01-26 16:41:00,23.0,4.0,30.06,WNW,292,1.2,12.6,40,0.00,,,0.00,Rainwise IP-100,2013-01-26 21:41:00,
2013-01-26 16:46:00,22.9,4.0,30.06,NNW,337,5.1,12.8,40,0.00,,,0.00,Rainwise IP-100,2013-01-26 21:46:00,
2013-01-26 16:51:00,22.8,4.0,30.07,NW,315,3.3,12.4,39,0.00,,,0.00,Rainwise IP-100,2013-01-26 21:51:00,
2013-01-26 16:56:00,22.6,4.0,30.07,North,360,7.0,8.6,39,0.00,,,0.00,Rainwise IP-100,2013-01-26 21:56:00,
2013-01-26 17:01:00,22.3,4.0,30.07,NW,315,3.0,7.7,40,0.00,,,0.00,Rainwise IP-100,2013-01-26 22:01:00,
2013-01-26 17:06:00,22.1,4.0,30.07,NW,315,4.9,10.7,40,0.00,,,0.00,Rainwise IP-100,2013-01-26 22:06:00,
2013-01-26 17:11:00,22.0,4.0,30.07,North,360,7.2,9.8,40,0.00,,,0.00,Rainwise IP-100,2013-01-26 22:11:00,
2013-01-26 17:16:00,22.0,4.0,30.08,NNW,337,3.5,13.3,40,0.00,,,0.00,Rainwise IP-100,2013-01-26 22:16:00,
2013-01-26 17:21:00,21.9,4.0,30.07,NW,315,6.3,9.8,41,0.00,,,0.00,Rainwise IP-100,2013-01-26 22:21:00,
2013-01-26 17:26:00,21.8,4.0,30.08,NNW,337,1.9,12.1,41,0.00,,,0.00,Rainwise IP-100,2013-01-26 22:26:00,
2013-01-26 17:31:00,21.7,4.0,30.08,West,270,5.1,9.1,41,0.00,,,0.00,Rainwise IP-100,2013-01-26 22:31:00,
2013-01-26 17:36:00,21.6,4.0,30.08,WNW,292,3.3,8.4,41,0.00,,,0.00,Rainwise IP-100,2013-01-26 22:36:00,
2013-01-26 17:41:00,21.6,4.0,30.07,NW,315,2.3,13.8,41,0.00,,,0.00,Rainwise IP-100,2013-01-26 22:41:00,
2013-01-26 17:46:00,21.6,4.0,30.08,NNW,337,7.9,9.3,41,0.00,,,0.00,Rainwise IP-100,2013-01-26 22:46:00,
2013-01-26 17:51:00,21.6,4.0,30.08,NNW,337,4.2,13.8,40,0.00,,,0.00,Rainwise IP-100,2013-01-26 22:51:00,
2013-01-26 17:56:00,21.6,4.0,30.08,NNW,337,3.3,12.6,40,0.00,,,0.00,Rainwise IP-100,2013-01-26 22:56:00,
2013-01-26 18:01:00,21.5,4.0,30.09,NW,315,2.6,10.5,40,0.00,,,0.00,Rainwise IP-100,2013-01-26 23:01:00,
2013-01-26 18:06:00,21.3,0.0,30.08,North,360,6.3,9.8,40,0.00,,,0.00,Rainwise IP-100,2013-01-26 23:06:00,
2013-01-26 18:11:00,21.3,0.0,30.08,North,360,9.8,17.3,40,0.00,,,0.00,Rainwise IP-100,2013-01-26 23:11:00,
2013-01-26 18:16:00,21.4,0.0,30.09,NNW,337,5.6,10.3,40,0.00,,,0.00,Rainwise IP-100,2013-01-26 23:16:00,
2013-01-26 18:21:00,21.2,0.0,30.09,NNW,337,3.3,13.8,40,0.00,,,0.00,Rainwise IP-100,2013-01-26 23:21:00,
2013-01-26 18:26:00,21.2,0.0,30.10,NW,315,1.4,17.7,39,0.00,,,0.00,Rainwise IP-100,2013-01-26 23:26:00,
2013-01-26 18:31:00,21.4,0.0,30.10,SSW,202,1.6,16.6,39,0.00,,,0.00,Rainwise IP-100,2013-01-26 23:31:00,
2013-01-26 18:36:00,21.3,0.0,30.10,NNW,337,14.5,17.0,39,0.00,,,0.00,Rainwise IP-100,2013-01-26 23:36:00,
2013-01-26 18:41:00,21.3,0.0,30.10,North,360,4.9,17.3,39,0.00,,,0.00,Rainwise IP-100,2013-01-26 23:41:00,
2013-01-26 18:46:00,21.3,0.0,30.10,NW,315,7.9,15.4,39,0.00,,,0.00,Rainwise IP-100,2013-01-26 23:46:00,
2013-01-26 18:51:00,21.4,0.0,30.11,West,270,0.0,14.2,39,0.00,,,0.00,Rainwise IP-100,2013-01-26 23:51:00,
2013-01-26 18:56:00,21.4,0.0,30.11,NNW,337,7.2,12.1,39,0.00,,,0.00,Rainwise IP-100,2013-01-26 23:56:00,
2013-01-26 19:01:00,21.3,0.0,30.11,NW,315,7.2,13.8,39,0.00,,,0.00,Rainwise IP-100,2013-01-27 00:01:00,
2013-01-26 19:06:00,21.2,0.0,30.12,WNW,292,8.2,11.2,39,0.00,,,0.00,Rainwise IP-100,2013-01-27 00:06:00,
2013-01-26 19:11:00,21.2,0.0,30.11,WNW,292,8.9,13.5,39,0.00,,,0.00,Rainwise IP-100,2013-01-27 00:11:00,
2013-01-26 19:16:00,21.2,0.0,30.12,NNW,337,4.2,16.6,39,0.00,,,0.00,Rainwise IP-100,2013-01-27 00:16:00,
2013-01-26 19:21:00,21.1,0.0,30.12,North,360,2.1,12.6,39,0.00,,,0.00,Rainwise IP-100,2013-01-27 00:21:00,
2013-01-26 19:26:00,21.0,0.0,30.12,NNW,337,4.7,12.6,39,0.00,,,0.00,Rainwise IP-100,2013-01-27 00:26:00,
2013-01-26 19:31:00,20.8,0.0,30.13,North,360,4.9,17.3,38,0.00,,,0.00,Rainwise IP-100,2013-01-27 00:31:00,
2013-01-26 19:36:00,20.7,0.0,30.13,NW,315,8.2,12.8,38,0.00,,,0.00,Rainwise IP-100,2013-01-27 00:36:00,
2013-01-26 19:41:00,20.6,0.0,30.14,NW,315,5.1,14.5,38,0.00,,,0.00,Rainwise IP-100,2013-01-27 00:41:00,
2013-01-26 19:46:00,20.4,0.0,30.14,WNW,292,4.7,20.8,38,0.00,,,0.00,Rainwise IP-100,2013-01-27 00:46:00,
2013-01-26 19:51:00,20.2,0.0,30.14,North,360,5.8,19.8,37,0.00,,,0.00,Rainwise IP-100,2013-01-27 00:51:00,
2013-01-26 19:56:00,19.9,0.0,30.14,NW,315,7.9,20.3,35,0.00,,,0.00,Rainwise IP-100,2013-01-27 00:56:00,
2013-01-26 20:01:00,19.7,0.0,30.15,North,360,12.1,19.4,35,0.00,,,0.00,Rainwise IP-100,2013-01-27 01:01:00,
2013-01-26 20:06:00,19.6,0.0,30.15,NNW,337,7.0,15.9,34,0.00,,,0.00,Rainwise IP-100,2013-01-27 01:06:00,
2013-01-26 20:11:00,19.4,0.0,30.14,NNE,22,4.2,16.1,34,0.00,,,0.00,Rainwise IP-100,2013-01-27 01:11:00,
2013-01-26 20:16:00,19.2,0.0,30.14,NNW,337,6.5,16.8,35,0.00,,,0.00,Rainwise IP-100,2013-01-27 01:16:00,
2013-01-26 20:21:00,19.0,0.0,30.14,North,360,8.6,16.1,35,0.00,,,0.00,Rainwise IP-100,2013-01-27 01:21:00,
2013-01-26 20:26:00,18.9,0.0,30.15,WNW,292,5.1,19.8,35,0.00,,,0.00,Rainwise IP-100,2013-01-27 01:26:00,
2013-01-26 20:31:00,18.8,0.0,30.15,North,360,11.4,15.4,36,0.00,,,0.00,Rainwise IP-100,2013-01-27 01:31:00,
2013-01-26 20:36:00,18.6,0.0,30.15,NW,315,11.4,16.8,37,0.00,,,0.00,Rainwise IP-100,2013-01-27 01:36:00,
2013-01-26 20:41:00,18.4,0.0,30.16,NNW,337,6.5,19.6,37,0.00,,,0.00,Rainwise IP-100,2013-01-27 01:41:00,
2013-01-26 20:46:00,18.3,0.0,30.16,North,360,7.7,24.5,38,0.00,,,0.00,Rainwise IP-100,2013-01-27 01:46:00,
2013-01-26 20:51:00,18.2,0.0,30.16,NNE,22,3.0,18.2,39,0.00,,,0.00,Rainwise IP-100,2013-01-27 01:51:00,
2013-01-26 20:56:00,18.1,0.0,30.16,NNW,337,9.3,21.5,40,0.00,,,0.00,Rainwise IP-100,2013-01-27 01:56:00,
2013-01-26 21:01:00,17.9,0.0,30.16,NNW,337,9.1,22.9,40,0.00,,,0.00,Rainwise IP-100,2013-01-27 02:01:00,
2013-01-26 21:06:00,17.8,0.0,30.16,WNW,292,9.6,14.9,41,0.00,,,0.00,Rainwise IP-100,2013-01-27 02:06:00,
2013-01-26 21:11:00,17.6,0.0,30.17,North,360,5.6,14.7,41,0.00,,,0.00,Rainwise IP-100,2013-01-27 02:11:00,
2013-01-26 21:16:00,17.5,0.0,30.17,WNW,292,13.8,16.8,42,0.00,,,0.00,Rainwise IP-100,2013-01-27 02:16:00,
2013-01-26 21:21:00,17.5,0.0,30.17,North,360,7.5,18.0,42,0.00,,,0.00,Rainwise IP-100,2013-01-27 02:21:00,
2013-01-26 21:26:00,17.5,0.0,30.17,North,360,17.5,17.5,43,0.00,,,0.00,Rainwise IP-100,2013-01-27 02:26:00,
2013-01-26 21:31:00,17.5,0.0,30.17,NW,315,7.9,18.2,43,0.00,,,0.00,Rainwise IP-100,2013-01-27 02:31:00,
2013-01-26 21:36:00,17.5,0.0,30.17,North,360,4.9,16.6,43,0.00,,,0.00,Rainwise IP-100,2013-01-27 02:36:00,
2013-01-26 21:41:00,17.3,0.0,30.17,NNW,337,7.7,18.7,44,0.00,,,0.00,Rainwise IP-100,2013-01-27 02:41:00,
2013-01-26 21:46:00,17.2,0.0,30.17,North,360,12.6,15.4,44,0.00,,,0.00,Rainwise IP-100,2013-01-27 02:46:00,
2013-01-26 21:51:00,17.1,4.0,30.18,NNW,337,4.4,22.6,45,0.00,,,0.00,Rainwise IP-100,2013-01-27 02:51:00,
2013-01-26 21:56:00,17.2,4.0,30.18,NW,315,8.9,17.3,45,0.00,,,0.00,Rainwise IP-100,2013-01-27 02:56:00,
2013-01-26 22:01:00,17.2,4.0,30.18,NNW,337,14.5,17.3,45,0.00,,,0.00,Rainwise IP-100,2013-01-27 03:01:00,
2013-01-26 22:06:00,17.1,4.0,30.18,NW,315,11.0,16.6,45,0.00,,,0.00,Rainwise IP-100,2013-01-27 03:06:00,
2013-01-26 22:11:00,17.0,4.0,30.18,North,360,7.9,14.0,45,0.00,,,0.00,Rainwise IP-100,2013-01-27 03:11:00,
2013-01-26 22:16:00,16.9,4.0,30.19,NW,315,11.0,14.5,46,0.00,,,0.00,Rainwise IP-100,2013-01-27 03:16:00,
2013-01-26 22:21:00,16.9,4.0,30.20,North,360,5.1,20.5,46,0.00,,,0.00,Rainwise IP-100,2013-01-27 03:21:00,
2013-01-26 22:26:00,16.9,4.0,30.20,NNW,337,4.2,18.4,46,0.00,,,0.00,Rainwise IP-100,2013-01-27 03:26:00,
2013-01-26 22:31:00,16.8,4.0,30.20,WSW,247,4.2,15.9,46,0.00,,,0.00,Rainwise IP-100,2013-01-27 03:31:00,
2013-01-26 22:36:00,16.7,4.0,30.21,WNW,292,10.5,16.3,47,0.00,,,0.00,Rainwise IP-100,2013-01-27 03:36:00,
2013-01-26 22:41:00,16.7,4.0,30.21,NW,315,6.8,13.8,47,0.00,,,0.00,Rainwise IP-100,2013-01-27 03:41:00,
2013-01-26 22:46:00,16.5,4.0,30.21,West,270,4.7,11.4,47,0.00,,,0.00,Rainwise IP-100,2013-01-27 03:46:00,
2013-01-26 22:51:00,16.4,0.0,30.21,NW,315,6.5,11.4,48,0.00,,,0.00,Rainwise IP-100,2013-01-27 03:51:00,
2013-01-26 22:56:00,16.4,0.0,30.21,NNW,337,6.1,13.5,48,0.00,,,0.00,Rainwise IP-100,2013-01-27 03:56:00,
2013-01-26 23:01:00,16.2,0.0,30.22,NNW,337,6.1,9.3,48,0.00,,,0.00,Rainwise IP-100,2013-01-27 04:01:00,
2013-01-26 23:06:00,16.1,0.0,30.22,North,360,9.3,11.4,49,0.00,,,0.00,Rainwise IP-100,2013-01-27 04:06:00,
2013-01-26 23:11:00,16.1,0.0,30.22,WNW,292,7.5,11.0,49,0.00,,,0.00,Rainwise IP-100,2013-01-27 04:11:00,
2013-01-26 23:16:00,15.9,0.0,30.22,North,360,2.1,10.0,49,0.00,,,0.00,Rainwise IP-100,2013-01-27 04:16:00,
2013-01-26 23:21:00,15.8,0.0,30.22,North,360,4.9,8.4,49,0.00,,,0.00,Rainwise IP-100,2013-01-27 04:21:00,
2013-01-26 23:26:00,15.7,4.0,30.22,North,360,6.8,10.5,50,0.00,,,0.00,Rainwise IP-100,2013-01-27 04:26:00,
2013-01-26 23:31:00,15.7,4.0,30.22,North,360,6.3,10.0,50,0.00,,,0.00,Rainwise IP-100,2013-01-27 04:31:00,
2013-01-26 23:36:00,15.8,4.0,30.22,NNW,337,6.8,11.7,50,0.00,,,0.00,Rainwise IP-100,2013-01-27 04:36:00,
2013-01-26 23:41:00,16.0,0.0,30.22,North,360,3.0,11.7,49,0.00,,,0.00,Rainwise IP-100,2013-01-27 04:41:00,
2013-01-26 23:46:00,16.0,0.0,30.22,NW,315,8.2,13.1,49,0.00,,,0.00,Rainwise IP-100,2013-01-27 04:46:00,
2013-01-26 23:51:00,16.1,0.0,30.22,NNW,337,1.2,18.0,49,0.00,,,0.00,Rainwise IP-100,2013-01-27 04:51:00,
2013-01-26 23:56:00,16.1,0.0,30.23,NNW,337,5.6,14.2,49,0.00,,,0.00,Rainwise IP-100,2013-01-27 04:56:00,